Location: Caltech
(34.1382°N, 118.1253°W)
Time: 19:20:18
(UTC-07:00)

AO-7 - Visible Passes

Search period start: 26 May 2016 00:00
Search period end: 05 June 2016 00:00
Orbit: 1440 x 1459 km, 101.6° (Epoch: 26 May)

Date Brightness Start Highest point End Pass type
(mag) Time Alt. Az. Time Alt. Az. Time Alt. Az.
26 May ? 03:42:19 10° NE 03:49:31 31° E 03:56:40 10° SSE visible
27 May ? 04:34:21 10° NNE 04:42:43 70° ESE 04:51:03 10° S visible
28 May ? 03:35:36 10° NE 03:42:30 28° E 03:49:20 10° SSE visible
29 May ? 04:27:26 10° NNE 04:35:45 64° ESE 04:44:01 10° S visible
30 May ? 03:28:56 10° NE 03:35:28 25° E 03:41:58 10° SSE visible
31 May ? 04:20:33 10° NNE 04:28:47 57° ESE 04:36:57 10° S visible
01 Jun ? 03:22:19 10° NE 03:28:26 22° E 03:34:31 10° SE visible
02 Jun ? 04:13:41 10° NNE 04:21:48 52° ESE 04:29:52 10° S visible
03 Jun ? 03:15:46 10° NE 03:21:24 19° E 03:26:59 10° SE visible
03 Jun ? 05:06:24 10° NNE 05:14:45 76° WNW 05:23:05 10° SSW visible
04 Jun ? 04:06:49 10° NNE 04:14:49 47° ESE 04:22:45 10° S visible
